Overview Statistics Trail Chart Weather Telemetry Raw packets
 

This is the latest recevied weather packets stored in our database for station/object KC1TEM-13. If no packets are shown the sender has not sent any weather packets the latest 10 day(s).

<< 33 34 35 36 37 38 39 >>
Time Temp. Humidity Pressure Rain* Wind** Luminosity Snow
1788392697 17.22° C 95% 1021.2 hPa 0 mm - 0 W/m² -
1788392396 17.22° C 95% 1021.3 hPa 0 mm - 0 W/m² -
1788392095 17.22° C 94% 1021.5 hPa 0 mm - 0 W/m² -
1788391790 17.22° C 94% 1021.6 hPa 0 mm - 0 W/m² -
1788391484 17.78° C 94% 1021.6 hPa 0 mm - 1 W/m² -
1788391184 17.78° C 94% 1021.6 hPa 0 mm - 1 W/m² -
1788390879 17.78° C 93% 1021.5 hPa 0 mm - 2 W/m² -
1788390574 17.78° C 93% 1021.4 hPa 0 mm - 3 W/m² -
1788390268 17.78° C 92% 1021.9 hPa 0 mm - 6 W/m² -
1788389967 17.78° C 91% 1021.7 hPa 0 mm - 9 W/m² -
1788389663 18.33° C 91% 1021.7 hPa 0 mm - 12 W/m² -
1788389362 18.33° C 91% 1021.7 hPa 0 mm - 15 W/m² -
1788389061 18.33° C 92% 1021.5 hPa 0 mm - 20 W/m² -
1788388759 18.33° C 91% 1021.6 hPa 0 mm - 24 W/m² -
1788388459 18.33° C 91% 1021.8 hPa 0 mm - 25 W/m² -
1788388158 18.33° C 91% 1022 hPa 0 mm - 28 W/m² -
1788387857 18.33° C 90% 1022 hPa 0 mm - 31 W/m² -
1788387557 18.33° C 90% 1021.8 hPa 0 mm - 38 W/m² -
1788387256 18.89° C 90% 1022 hPa 0 mm - 41 W/m² -
1788386952 18.89° C 88% 1022.1 hPa 0 mm - 47 W/m² -
1788386651 18.89° C 88% 1022.1 hPa 0 mm - 52 W/m² -
1788386347 18.89° C 88% 1022 hPa 0 mm - 49 W/m² -
1788386042 18.89° C 89% 1021.9 hPa 0 mm - 52 W/m² -
1788385738 18.89° C 89% 1022 hPa 0 mm - 50 W/m² -
1788385437 18.89° C 87% 1022.1 hPa 0 mm - 48 W/m² -

* Rain latest hour (hover to see other rain measurements)
** Current wind speed in m/s (hover to see current wind gust speed)